TimeCDT,TemperatureF,Dew PointF,Humidity,Sea Level PressureIn,VisibilityMPH,Wind Direction,Wind SpeedMPH,Gust SpeedMPH,PrecipitationIn,Events,Conditions,WindDirDegrees,DateUTC
12:53 AM,71.1,68.0,90,30.06,9.0,South,11.5,18.4,N/A,,Partly Cloudy,170,2012-10-14 05:53:00
1:53 AM,72.0,69.1,91,30.04,9.0,South,10.4,-,N/A,,Mostly Cloudy,170,2012-10-14 06:53:00
2:38 AM,71.6,69.8,94,30.02,9.0,South,9.2,-,N/A,,Scattered Clouds,170,2012-10-14 07:38:00
2:53 AM,72.0,69.1,91,30.04,9.0,South,8.1,-,N/A,,Mostly Cloudy,170,2012-10-14 07:53:00
3:35 AM,71.6,69.8,94,30.01,9.0,SSE,9.2,-,N/A,,Scattered Clouds,160,2012-10-14 08:35:00
3:53 AM,72.0,69.1,91,30.03,9.0,South,9.2,-,N/A,,Partly Cloudy,170,2012-10-14 08:53:00
4:39 AM,71.6,69.8,94,30.01,9.0,SSE,9.2,-,N/A,,Mostly Cloudy,160,2012-10-14 09:39:00
4:53 AM,72.0,69.1,91,30.04,9.0,South,9.2,-,N/A,,Overcast,170,2012-10-14 09:53:00
5:20 AM,73.4,69.8,88,30.04,9.0,South,6.9,-,N/A,,Overcast,170,2012-10-14 10:20:00
5:53 AM,72.0,69.1,91,30.07,8.0,SSE,6.9,-,N/A,,Mostly Cloudy,160,2012-10-14 10:53:00
6:53 AM,71.1,69.1,93,30.10,7.0,SSE,3.5,-,N/A,,Partly Cloudy,150,2012-10-14 11:53:00
7:53 AM,72.0,69.1,91,30.13,6.0,Calm,Calm,-,N/A,,Mostly Cloudy,0,2012-10-14 12:53:00
8:03 AM,71.6,69.8,94,30.12,6.0,West,3.5,-,N/A,,Mostly Cloudy,270,2012-10-14 13:03:00
8:33 AM,73.4,69.8,88,30.12,7.0,SSE,4.6,-,N/A,,Mostly Cloudy,150,2012-10-14 13:33:00
8:53 AM,73.0,70.0,90,30.14,7.0,SSE,3.5,-,N/A,,Partly Cloudy,160,2012-10-14 13:53:00
9:53 AM,75.0,70.0,84,30.15,8.0,South,5.8,-,N/A,,Clear,180,2012-10-14 14:53:00
10:50 AM,75.2,71.6,89,30.14,8.0,Calm,Calm,-,N/A,,Overcast,0,2012-10-14 15:50:00
10:53 AM,75.0,70.0,84,30.15,8.0,North,6.9,-,N/A,,Overcast,10,2012-10-14 15:53:00
11:53 AM,75.9,73.0,91,30.09,7.0,South,10.4,-,0.00,,Scattered Clouds,170,2012-10-14 16:53:00
12:53 PM,79.0,72.0,79,30.05,10.0,South,10.4,20.7,N/A,,Clear,180,2012-10-14 17:53:00
1:53 PM,81.0,71.1,72,30.02,10.0,South,8.1,20.7,N/A,,Partly Cloudy,190,2012-10-14 18:53:00
3:53 PM,82.0,71.1,69,29.99,10.0,Variable,5.8,-,N/A,,Overcast,0,2012-10-14 20:53:00
4:53 PM,82.0,69.1,65,29.98,10.0,SW,8.1,-,N/A,,Mostly Cloudy,220,2012-10-14 21:53:00
5:53 PM,81.0,68.0,65,29.98,10.0,Variable,4.6,-,N/A,,Mostly Cloudy,0,2012-10-14 22:53:00
6:53 PM,77.0,68.0,74,29.98,10.0,SSW,3.5,-,N/A,,Partly Cloudy,210,2012-10-14 23:53:00
7:53 PM,73.9,66.9,79,29.99,10.0,SW,3.5,-,N/A,,Clear,230,2012-10-15 00:53:00
8:53 PM,73.9,68.0,82,29.99,10.0,Calm,Calm,-,N/A,,Partly Cloudy,0,2012-10-15 01:53:00
9:53 PM,72.0,68.0,87,30.01,10.0,WNW,5.8,-,N/A,,Partly Cloudy,300,2012-10-15 02:53:00
10:05 PM,73.4,69.8,88,30.00,10.0,WNW,15.0,23.0,N/A,Thunderstorm,Thunderstorm,290,2012-10-15 03:05:00
10:15 PM,69.8,64.4,83,30.01,1.8,Variable,5.8,26.5,0.16,Rain-Thunderstorm,Heavy Thunderstorms and Rain,0,2012-10-15 03:15:00
10:26 PM,66.2,66.2,100,30.01,3.0,NW,3.5,-,0.21,Rain-Thunderstorm,Light Thunderstorms and Rain,310,2012-10-15 03:26:00
10:33 PM,66.2,66.2,100,30.01,10.0,North,3.5,-,0.21,Rain,Light Rain,360,2012-10-15 03:33:00
10:53 PM,66.0,64.0,93,30.03,10.0,Calm,Calm,-,0.21,,Partly Cloudy,0,2012-10-15 03:53:00
11:53 PM,61.0,60.1,97,30.03,5.0,Calm,Calm,-,N/A,,Clear,0,2012-10-15 04:53:00